Regional Weather Roundup
Issued by NWS

Home | Current Version | Previous Version | Text Only | Print | Product List | Glossary Off
Versions: 1 2 3 4 5 6 7 8 9 10 11 12 13 14 15 16 17 18 19 20 21 22 23 24 25 26 27 28 29 30 31 32 33 34 35 36 37 38 39 40 41 42 43 44 45 46 47 48 49 50

000
ASUS45 KTFX 231210
RWRMT
MONTANA REGIONAL WEATHER ROUNDUP
NATIONAL WEATHER SERVICE GREAT FALLS MT
600 AM MDT FRI JUN 23 2017

NOTE: "FAIR" INDICATES FEW OR NO CLOUDS BELOW 12000 FEET WITH NO
SIGNIFICANT WEATHER AND/OR OBSTRUCTIONS TO VISIBILITY.

MTZ001>007-043-231300-
WEST OF THE DIVIDE

CITY           SKY/WX    TMP DP  RH WIND       PRES   REMARKS
KALISPELL      PTCLDY    39  38  96 CALM      30.25R
MISSOULA       CLEAR     40  36  86 CALM      30.29R
BUTTE          CLEAR     35  29  78 SE5       30.32R
MULLAN PASS    CLEAR     45  28  51 NW3       30.31S
DEER LODGE       N/A     36  32  87 CALM      30.34R
EUREKA           N/A     41  37  87 MISG      30.25R
HAMILTON         N/A     43  34  70 S3        30.29R
$$

MTZ008-052>055-231300-
SOUTHWEST MONTANA

CITY           SKY/WX    TMP DP  RH WIND       PRES   REMARKS
BOZEMAN        CLEAR     39  34  82 CALM      30.30R
DILLON         CLEAR     41  30  65 S5        30.30R
W YELLOWSTONE  CLEAR     27  25  93 CALM      30.33R
ENNIS          CLEAR     34  30  86 CALM      30.35R
THREE FORKS      N/A     37  34  89 CALM      30.26R
$$

MTZ009-010-012-014-046-048-049-054-231300-
EAST SLOPES AND CENTRAL MONTANA

CITY           SKY/WX    TMP DP  RH WIND       PRES   REMARKS
CUT BANK       CLOUDY    46  41  82 N8        30.30R
GREAT FALLS    CLOUDY    40  36  86 W3        30.30R
MALMSTROM AFB  CLOUDY    41  39  93 S5        30.29S
HELENA         CLEAR     42  35  76 W6        30.30R
CHOTEAU          N/A     41  39  93 SW6       30.31S
$$

MTZ011-013-016-021-045-047-050-051-231300-
NORTH CENTRAL MONTANA

CITY           SKY/WX    TMP DP  RH WIND       PRES   REMARKS
HAVRE          PTCLDY    41  37  86 SW6       30.28R
LEWISTOWN      PTCLDY    36  32  85 CALM      30.30R
N BAR RANCH      N/A     37  32  81 NW9       30.30S WCI  31
CHINOOK          N/A     41  37  87 CALM      30.27R
FORT BENTON      N/A     46  41  81 CALM      30.30S
$$

MTZ017>020-022>027-061-062-231300-
NORTHEAST MONTANA

CITY           SKY/WX    TMP DP  RH WIND       PRES   REMARKS
GLASGOW        PTCLDY    40  37  89 N7        30.21R
JORDAN           N/A     43  36  76 NW9       30.23R
SIDNEY         CLEAR     46  38  73 NW14      30.15R
WOLF POINT     CLOUDY    51  41  68 W7        30.19R
MALTA          PTCLDY    37  36  93 W5        30.24S
PLENTYWOOD       N/A     41  37  87 CALM      30.12R
POPLAR           N/A     43  39  87 W7        30.18R
$$

MTZ028>42-056>058-231300-
SOUTHCENTRAL AND SOUTHEAST MONTANA

CITY           SKY/WX    TMP DP  RH WIND       PRES   REMARKS
BAKER          PTCLDY    47  39  74 W12       30.18R
BILLINGS       PTCLDY    47  38  71 S6        30.29R
LIVINGSTON     CLEAR     35  32  88 CALM      30.30R
MILES CITY     PTCLDY    50  37  61 NW12      30.22R
BIG TIMBER     CLEAR     37  34  87 W3        30.32R
FORSYTH          N/A     48  37  66 W8        30.25R
ROUNDUP          N/A     42  30  62 S7        30.17S
$$

REGIONAL REPORTS...DAKOTAS

CITY           SKY/WX    TMP DP  RH WIND       PRES   REMARKS
WILLISTON      CLOUDY    48  40  73 W13       30.11R
MINOT          CLOUDY    54  42  64 NW21G31   29.97R
DICKINSON      CLOUDY    47  41  80 W15       30.09R
BEACH          CLOUDY    48  39  71 NW14      30.19R
CROSBY           N/A     46  43  87 W9        30.07R
TIOGA            N/A     46  46 100 NW20      30.07S
WATFORD CITY   CLOUDY    46  43  87 W13       30.11R
BISMARCK       CLOUDY    56  44  64 NW15G23   30.03R
GRAND FORKS    PTSUNNY   60  54  80 NW16G23   29.78R
FARGO          PTSUNNY   62  54  74 NW17      29.79R
BUFFALO SD       N/A     50  42  74 NW16      30.10R
RAPID CITY     PTCLDY    53  39  59 N20       30.18R
$$

REGIONAL REPORTS...WYOMING/IDAHO/WASHINGTON

CITY           SKY/WX    TMP DP  RH WIND       PRES   REMARKS
GILLETTE       CLEAR     41  36  82 NW6       30.26R
SHERIDAN       CLEAR     39  35  86 SW5       30.28R
BUFFALO WY     CLEAR     39  34  82 W6        30.29F
CODY           PTCLDY    45  35  68 CALM      30.33R
YELLOWSTONE LA   N/A     27  25  92 CALM      30.36R
IDAHO FALLS      N/A     42  36  79 N9        30.22R
SALMON         CLEAR     39  32  75 CALM      30.29R
BOISE          CLEAR     51  35  54 W5        30.17R
SPOKANE        CLEAR     54  37  52 CALM      30.24R
$$

REGIONAL REPORTS...ALBERTA

CITY           SKY/WX    TMP DP  RH WIND       PRES   REMARKS
EDMONTON       CLEAR     45  41  87 W7        30.20S
CALGARY        MOCLDY    50  39  66 W12G17    30.28S
LETHBRIDGE     MOCLDY    46  43  87 W5        30.28R
MEDICINE HAT   PTCLDY    41  37  87 SW5       30.26R
WATERTON GATE    N/A     41  39  93 W1          N/A
CARDSTON         N/A     46  43  87 S3          N/A
MILK RIVER       N/A     46  43  87 W8          N/A
$$

REGIONAL REPORTS...SASKATCHEWAN

CITY           SKY/WX    TMP DP  RH WIND       PRES   REMARKS
SWIFT CURRENT  CLEAR     39  37  93 W8        30.19R
REGINA         PTCLDY    45  39  81 NW20      30.08R
SASKATOON      PTCLDY    41  37  87 NW9       30.14R
CYPRESS HILLS    N/A     39  34  81 NW5         N/A
VAL MARIE        N/A     41  37  87 W10         N/A
ROCKGLEN         N/A     41  37  87 W10         N/A
ASSINIBOIA       N/A     46  41  81 W5          N/A
$$



USA.gov is the U.S. government's official web portal to all federal, state and local government web resources and services.